Location: Aulus
(42.7909°N, 1.3399°E)
Time: 18:57:55
(UTC+00:00)

ATLAS 3B R/B - Pass Details

Date: 19 May 2025
Orbit: 935 x 1258 km, 63.8° (Epoch: 23 June)

Event Time Altitude Azimuth Distance (km) Brightness Sun altitude
Exits shadow 23:17:18 41° 224° (SW) 1,651 3.4 -26.7°
Maximum altitude 23:20:17 81° 306° (NW) 1,219 2.9 -26.8°
Drops below altitude 10° 23:28:07 10° 34° (NE) 3,224 5.8 -27.0°
Sets 23:30:59 0° 36° (NE) 4,210 6.5 -27.0°
